Temp
41 41 40 41 41 41 41 41 41 41 41 41 40 40 40 41 41 41 41 42 40 39 39 38 38 38 41 38 38 38 39 40 40 40 39 39 38 39 41 41 40 40
40 40 40 40 40 40 41 41 40 40 40 40 40 40 41 41 41 40 40 40 40 40 39 39 38 37 37 37 37 36 38 37 38 40 39 37 38 37 38 39 40 41
41 41 41 39 39 40 40 41 40 40 39 39 40 40 40 40 39 39 39 38 38 39 39 38 37 37 36 35 35 35 36 36 37 37 36 37 37 37 37 37 38 38
40 40 40 40 40 40 40 40 40 40 40 39 39 39 39 39 38 38 38 38 37 37 36 36 36 36 36 36 34 37 36 35 36 35 36 36 36 36 36 36 36 37
39 39 39 40 39 40 40 40 39 39 39 39 39 38 38 37 37 37 37 37 36 36 36 36 36 36 35 35 35 36 36 36 35 34 35 35 36 36 37 36 35 36
39 39 39 38 38 38 39 39 38 38 38 38 38 37 36 36 35 36 37 36 37 37 37 36 36 36 35 35 34 35 35 35 36 34 34 35 36 36 36 36 35 35
36 36 37 37 38 37 38 37 37 37 37 36 36 37 36 36 36 36 36 35 36 36 36 37 36 37 37 36 35 34 34 34 34 34 34 34 34 35 35 34 35 35
34 34 34 34 34 32 34 35 34 35 35 35 36 36 35 35 35 36 36 36 35 36 35 36 36 37 37 37 36 36 36 37 36 34 34 34 34 34 34 35 35 34
32 33 34 34 34 33 33 33 31 33 33 34 35 35 34 32 33 34 35 35 35 36 35 35 35 35 35 36 36 36 36 36 36 36 35 35 35 35 35 35 34 34
32 32 33 32 33 34 33 34 33 33 33 33 35 34 33 33 31 32 33 34 34 35 35 35 35 35 35 35 35 35 35 35 36 36 36 36 36 36 36 36 36 36
30 30 31 32 32 32 33 34 34 34 34 34 34 34 34 33 33 32 33 33 34 34 35 35 35 35 34 35 35 35 35 35 35 35 35 36 36 36 36 36 36 36
30 30 31 30 31 32 33 34 34 34 34 34 34 34 34 33 33 33 33 33 32 33 34 35 35 35 35 35 35 35 35 35 35 34 35 35 36 36 35 36 36 36
28 29 30 30 31 32 32 32 33 34 33 33 33 32 33 33 34 33 33 33 33 33 33 33 33 34 34 34 34 34 34 34 34 34 35 35 35 35 35 35 36 36
28 28 28 29 29 29 29 29 30 30 31 32 32 32 32 31 31 32 33 33 33 33 33 34 33 33 33 34 34 34 35 34 34 34 34 33 34 35 35 35 35 35
30 30 30 30 29 28 28 29 29 29 29 29 28 29 30 30 30 30 30 31 31 32 32 33 33 33 34 34 34 34 34 34 34 34 34 34 34 33 34 34 34 34
30 30 30 31 30 30 30 30 29 29 29 28 29 29 28 28 28 28 28 28 28 29 29 30 31 32 34 36 37 35 35 35 34 34 34 34 34 34 34 34 33 34
30 30 30 29 30 29 28 28 28 28 28 28 28 28 28 28 28 27 27 28 28 28 29 30 31 32 34 36 37 38 36 35 34 34 34 34 34 33 33 34 34 34
28 28 27 27 27 26 26 25 25 25 25 25 26 26 27 27 27 27 28 28 29 28 28 29 30 33 35 36 36 37 37 34 33 33 33 33 33 33 34 34 34 34
25 24 24 24 23 23 22 22 22 22 22 23 23 24 25 24 24 25 26 27 27 27 27 28 28 32 34 34 35 35 36 35 32 32 32 32 32 32 33 33 33 33
23 21 20 20 20 20 20 19 19 19 20 21 21 22 21 21 22 22 23 23 25 25 25 26 27 30 32 33 33 34 35 34 31 31 31 31 32 32 32 32 32 32
19 18 17 17 17 17 16 16 17 17 17 18 19 18 18 18 18 18 19 20 20 22 22 23 24 28 30 31 32 33 33 33 30 30 30 30 31 32 32 32 32 32
16 14 13 13 13 13 12 12 13 13 13 14 14 14 15 15 15 16 15 16 17 17 18 18 21 25 27 29 30 31 32 28 27 27 27 27 28 29 30 31 32 32
13 11 10 10 10 9 8 8 9 9 9 11 9 10 10 10 11 11 13 13 13 14 15 15 17 21 25 26 27 28 28 24 25 25 25 25 27 28 29 30 31 31
10 9 7 7 6 5 5 6 7 7 7 8 7 7 7 7 8 9 10 11 11 11 13 12 13 17 21 22 24 25 25 22 23 23 23 24 25 27 27 28 29 31
8 7 6 5 4 4 5 4 4 5 6 6 6 6 6 6 7 6 7 8 9 9 11 10 9 12 17 19 21 22 21 20 21 21 21 22 23 23 25 25 26 28
6 5 4 4 3 3 3 3 4 4 4 4 4 4 4 4 5 5 4 5 6 6 7 8 8 9 13 19 20 21 22 19 19 19 18 20 21 22 22 23 25 25
MSLP
1021.89 1021.92 1021.97 1021.92 1022.01 1022.09 1022.04 1022.01 1021.89 1021.77 1021.68 1021.65 1021.60 1021.45 1021.21 1020.89 1020.41 1020.04 1019.77 1019.45 1019.21 1019.01 1018.80 1018.68 1018.60 1018.53 1018.48 1018.48 1018.53 1018.53 1018.48 1018.36 1018.36 1018.36 1018.41 1018.45 1018.36 1018.28 1018.12 1018.04 1018.01 1017.97
1022.24 1022.28 1022.36 1022.41 1022.36 1022.33 1022.28 1022.28 1022.24 1022.09 1022.01 1021.92 1021.92 1021.84 1021.57 1021.24 1020.84 1020.53 1020.21 1019.89 1019.65 1019.41 1019.24 1019.01 1018.84 1018.65 1018.53 1018.48 1018.48 1018.53 1018.48 1018.41 1018.28 1018.28 1018.36 1018.41 1018.36 1018.28 1018.09 1017.92 1017.72 1017.68
1022.57 1022.53 1022.65 1022.80 1022.89 1022.77 1022.65 1022.45 1022.36 1022.33 1022.24 1022.16 1022.12 1022.12 1022.04 1021.77 1021.36 1020.92 1020.57 1020.28 1019.97 1019.68 1019.48 1019.33 1019.12 1018.97 1018.84 1018.68 1018.60 1018.60 1018.57 1018.41 1018.33 1018.16 1018.28 1018.33 1018.33 1018.33 1018.12 1017.97 1017.77 1017.57
1022.84 1022.92 1023.01 1023.04 1023.16 1023.24 1023.12 1022.89 1022.60 1022.48 1022.28 1022.16 1022.24 1022.41 1022.45 1022.24 1021.92 1021.48 1021.04 1020.65 1020.33 1020.04 1019.77 1019.48 1019.28 1019.09 1018.92 1018.80 1018.68 1018.53 1018.45 1018.41 1018.33 1018.28 1018.24 1018.28 1018.33 1018.28 1018.12 1017.97 1017.77 1017.65
1023.01 1023.09 1023.16 1023.24 1023.36 1023.36 1023.16 1022.92 1022.68 1022.48 1022.41 1022.48 1022.48 1022.57 1022.60 1022.45 1022.09 1021.68 1021.33 1021.04 1020.72 1020.41 1020.04 1019.72 1019.45 1019.21 1019.01 1018.80 1018.68 1018.60 1018.41 1018.33 1018.24 1018.28 1018.28 1018.21 1018.12 1018.12 1017.92 1017.89 1017.68 1017.48
1022.97 1023.09 1023.09 1023.24 1023.24 1023.16 1022.89 1022.72 1022.57 1022.45 1022.45 1022.48 1022.60 1022.68 1022.72 1022.60 1022.33 1021.92 1021.57 1021.28 1020.97 1020.65 1020.21 1019.84 1019.57 1019.33 1019.21 1019.04 1018.92 1018.72 1018.57 1018.45 1018.24 1018.24 1018.24 1018.16 1018.01 1017.92 1017.80 1017.60 1017.48 1017.36
1023.21 1023.16 1023.09 1023.09 1023.01 1023.01 1022.80 1022.77 1022.68 1022.60 1022.60 1022.68 1022.65 1022.65 1022.57 1022.36 1022.09 1021.84 1021.60 1021.45 1021.24 1020.89 1020.45 1020.01 1019.60 1019.28 1019.12 1019.09 1018.97 1018.80 1018.72 1018.60 1018.41 1018.36 1018.28 1018.12 1017.97 1017.68 1017.60 1017.45 1017.33 1017.16
1023.28 1023.24 1023.24 1023.24 1023.16 1023.04 1022.84 1022.77 1022.65 1022.60 1022.65 1022.65 1022.60 1022.60 1022.53 1022.24 1021.89 1021.57 1021.36 1021.33 1021.21 1020.92 1020.57 1020.12 1019.72 1019.36 1019.12 1019.04 1018.97 1018.84 1018.60 1018.45 1018.28 1018.16 1018.09 1017.92 1017.77 1017.53 1017.28 1017.21 1017.09 1016.97
1023.48 1023.41 1023.41 1023.33 1023.33 1023.16 1023.09 1022.97 1022.92 1022.84 1022.80 1022.77 1022.60 1022.45 1022.28 1022.04 1021.72 1021.45 1021.33 1021.24 1021.09 1020.77 1020.41 1020.01 1019.60 1019.36 1019.16 1019.09 1018.97 1018.84 1018.65 1018.36 1018.16 1018.04 1017.92 1017.72 1017.53 1017.21 1016.97 1016.80 1016.77 1016.72
1023.57 1023.57 1023.48 1023.36 1023.24 1023.12 1023.01 1022.92 1022.84 1022.80 1022.72 1022.65 1022.45 1022.24 1021.97 1021.65 1021.53 1021.41 1021.36 1021.28 1021.16 1020.80 1020.45 1019.97 1019.53 1019.16 1019.01 1018.92 1018.80 1018.68 1018.48 1018.28 1018.04 1017.92 1017.77 1017.60 1017.28 1016.92 1016.65 1016.53 1016.36 1016.24
1023.48 1023.41 1023.28 1023.16 1023.09 1023.04 1023.01 1022.89 1022.77 1022.65 1022.57 1022.41 1022.21 1022.04 1021.84 1021.60 1021.36 1021.28 1021.21 1021.16 1021.04 1020.72 1020.33 1019.84 1019.45 1019.16 1018.97 1018.72 1018.53 1018.33 1018.16 1017.97 1017.80 1017.68 1017.48 1017.28 1017.04 1016.72 1016.45 1016.24 1016.09 1015.92
1023.33 1023.24 1023.16 1023.12 1023.04 1023.01 1022.92 1022.80 1022.68 1022.60 1022.45 1022.33 1022.21 1021.97 1021.80 1021.65 1021.48 1021.33 1021.21 1020.92 1020.72 1020.36 1019.92 1019.48 1019.12 1018.92 1018.77 1018.57 1018.33 1018.09 1017.84 1017.60 1017.41 1017.24 1017.04 1016.84 1016.57 1016.36 1016.21 1016.04 1015.89 1015.65
1023.48 1023.41 1023.28 1023.16 1023.01 1022.92 1022.84 1022.77 1022.65 1022.48 1022.36 1022.16 1021.97 1021.89 1021.65 1021.45 1021.21 1021.01 1020.77 1020.57 1020.24 1019.92 1019.57 1019.16 1018.84 1018.57 1018.36 1018.12 1017.92 1017.77 1017.57 1017.33 1017.09 1016.84 1016.57 1016.33 1016.09 1015.89 1015.72 1015.65 1015.53 1015.41
1023.97 1023.84 1023.65 1023.48 1023.41 1023.28 1023.21 1023.04 1022.84 1022.65 1022.41 1022.12 1021.92 1021.68 1021.41 1021.21 1020.97 1020.68 1020.36 1020.21 1019.92 1019.57 1019.24 1018.97 1018.68 1018.41 1018.16 1017.97 1017.72 1017.53 1017.24 1016.97 1016.72 1016.57 1016.41 1016.16 1015.89 1015.60 1015.41 1015.21 1015.04 1014.92
1023.97 1023.77 1023.60 1023.48 1023.41 1023.33 1023.21 1023.04 1022.84 1022.60 1022.36 1022.16 1022.01 1021.80 1021.57 1021.21 1020.89 1020.60 1020.21 1019.89 1019.57 1019.28 1018.92 1018.65 1018.41 1018.12 1017.84 1017.68 1017.57 1017.28 1017.09 1016.84 1016.57 1016.24 1015.97 1015.65 1015.36 1015.21 1015.04 1014.84 1014.60 1014.41
1023.89 1023.65 1023.41 1023.24 1023.12 1022.97 1022.77 1022.57 1022.41 1022.28 1022.12 1021.92 1021.72 1021.53 1021.28 1021.01 1020.68 1020.41 1020.12 1019.77 1019.33 1018.92 1018.68 1018.41 1018.09 1017.80 1017.48 1017.33 1017.16 1016.97 1016.65 1016.41 1016.09 1015.77 1015.53 1015.24 1014.92 1014.57 1014.28 1014.21 1014.09 1013.92
1023.65 1023.41 1023.24 1023.12 1023.04 1022.92 1022.77 1022.65 1022.45 1022.21 1022.01 1021.72 1021.41 1021.16 1020.89 1020.57 1020.24 1019.92 1019.65 1019.33 1019.04 1018.72 1018.41 1018.12 1017.80 1017.45 1017.16 1016.92 1016.72 1016.53 1016.36 1016.01 1015.72 1015.36 1015.16 1014.80 1014.57 1014.24 1013.92 1013.65 1013.41 1013.33
1024.41 1024.20 1024.01 1023.72 1023.53 1023.36 1023.16 1022.89 1022.53 1022.16 1021.84 1021.57 1021.28 1021.01 1020.65 1020.33 1020.04 1019.65 1019.28 1018.97 1018.68 1018.41 1018.12 1017.77 1017.45 1017.16 1016.84 1016.60 1016.36 1016.16 1015.97 1015.72 1015.41 1015.09 1014.72 1014.41 1014.12 1013.89 1013.57 1013.28 1013.01 1012.84
1024.93 1024.69 1024.48 1024.32 1024.29 1024.17 1023.89 1023.57 1023.21 1022.80 1022.36 1021.92 1021.48 1021.04 1020.60 1020.28 1019.84 1019.53 1019.16 1018.80 1018.53 1018.12 1017.72 1017.33 1017.01 1016.68 1016.45 1016.33 1016.12 1015.89 1015.65 1015.45 1015.16 1014.84 1014.48 1014.09 1013.84 1013.57 1013.28 1013.01 1012.72 1012.41
1025.20 1025.17 1025.12 1025.01 1024.81 1024.56 1024.24 1023.92 1023.60 1023.21 1022.77 1022.45 1022.01 1021.45 1021.01 1020.48 1019.97 1019.60 1019.21 1018.89 1018.57 1018.21 1017.72 1017.24 1016.80 1016.41 1016.12 1015.92 1015.68 1015.48 1015.28 1015.12 1014.80 1014.53 1014.09 1013.68 1013.36 1013.09 1012.84 1012.57 1012.33 1012.09
1025.69 1025.65 1025.56 1025.32 1025.17 1024.93 1024.69 1024.36 1024.01 1023.57 1023.12 1022.77 1022.41 1021.97 1021.45 1021.01 1020.48 1020.04 1019.48 1019.04 1018.68 1018.41 1018.04 1017.45 1016.89 1016.60 1016.33 1015.97 1015.57 1015.24 1014.92 1014.68 1014.45 1014.16 1013.77 1013.28 1012.92 1012.57 1012.28 1012.01 1011.77 1011.57
1026.29 1026.12 1026.01 1025.89 1025.65 1025.36 1025.17 1024.84 1024.48 1024.17 1023.80 1023.41 1023.04 1022.48 1022.01 1021.57 1020.89 1020.65 1020.04 1019.48 1019.01 1018.80 1018.45 1017.72 1016.97 1016.77 1016.48 1016.16 1015.72 1015.28 1014.92 1014.53 1014.21 1013.80 1013.41 1013.01 1012.60 1012.28 1011.92 1011.57 1011.28 1011.01
1026.81 1026.72 1026.56 1026.36 1026.20 1025.96 1025.69 1025.32 1024.93 1024.48 1024.17 1024.01 1023.57 1022.89 1022.41 1021.92 1021.48 1020.97 1020.36 1019.97 1019.41 1019.01 1018.72 1018.01 1017.12 1016.68 1016.57 1016.24 1015.80 1015.41 1015.09 1014.68 1014.24 1013.68 1013.12 1012.60 1012.01 1011.60 1011.24 1010.92 1010.65 1010.33
1027.12 1027.05 1026.89 1026.65 1026.48 1026.32 1025.93 1025.44 1025.12 1024.81 1024.48 1024.12 1023.77 1023.04 1022.36 1021.97 1021.72 1021.09 1020.48 1020.24 1019.92 1019.45 1019.09 1018.53 1017.60 1017.09 1017.01 1016.57 1016.09 1015.68 1015.41 1014.89 1014.33 1013.68 1013.01 1012.41 1011.68 1011.24 1010.89 1010.57 1010.28 1010.09
1027.20 1027.08 1027.01 1026.77 1026.48 1026.20 1025.96 1025.53 1025.08 1024.77 1024.32 1024.01 1023.60 1023.16 1022.48 1022.01 1021.68 1021.24 1020.48 1020.12 1020.21 1019.97 1019.48 1019.24 1018.48 1017.68 1017.24 1016.77 1016.12 1015.65 1015.28 1014.80 1014.24 1013.57 1012.80 1012.12 1011.60 1011.01 1010.65 1010.24 1009.72 1009.36
1027.32 1027.20 1026.96 1026.81 1026.44 1025.96 1025.72 1025.44 1024.93 1024.44 1024.12 1023.84 1023.33 1023.04 1022.45 1021.84 1021.60 1021.21 1020.65 1020.09 1020.16 1020.04 1019.53 1019.09 1018.45 1017.60 1017.21 1016.68 1016.04 1015.53 1015.12 1014.68 1014.09 1013.45 1012.65 1011.92 1011.45 1010.97 1010.28 1009.65 1009.33 1008.97
Wind_Speed
9 8 8 8 8 7 8 9 8 8 8 8 8 8 8 8 8 8 8 9 8 5 5 4 4 4 4 4 4 4 4 5 5 5 6 6 6 7 9 8 8 8
9 9 8 8 7 7 7 7 7 8 8 8 8 8 8 9 9 8 8 8 8 8 7 6 5 5 4 4 5 4 5 5 6 4 5 6 7 6 8 8 9 8
8 8 8 8 8 9 8 7 7 7 7 7 7 8 9 8 10 9 8 8 7 8 8 7 6 6 5 5 4 4 5 5 6 6 5 7 7 7 7 7 7 8
7 7 7 6 5 5 5 6 6 7 7 8 8 8 7 7 7 9 9 9 8 8 8 7 7 6 6 6 5 6 5 5 6 5 5 6 6 7 7 6 7 7
6 6 6 5 4 3 3 5 6 6 6 5 6 7 8 9 9 9 8 9 7 8 8 8 7 7 6 7 6 6 6 6 6 5 5 7 7 6 7 6 7 8
6 5 5 5 5 6 7 8 7 7 6 6 5 4 3 4 5 7 8 9 9 8 8 7 7 7 7 6 6 6 6 7 7 5 6 7 8 7 6 6 6 7
4 4 6 5 6 5 6 5 5 5 5 4 4 6 5 5 4 4 5 5 7 8 7 8 8 8 7 6 7 7 6 5 6 6 7 8 7 8 6 6 7 8
3 2 2 3 4 4 4 5 5 6 5 4 5 5 4 5 6 6 6 5 4 5 5 5 6 7 7 7 7 8 8 6 6 6 7 8 6 8 8 7 6 8
3 2 2 2 2 3 2 3 3 4 4 4 6 6 5 4 5 5 7 7 8 8 6 5 4 4 4 5 6 7 8 8 7 7 8 8 8 8 8 7 7 8
3 3 2 2 3 3 3 4 4 4 4 4 5 5 7 7 5 5 5 6 7 8 8 7 7 6 5 4 6 6 6 7 8 8 8 8 9 9 8 8 9 9
4 4 4 4 4 4 5 5 5 5 5 5 6 6 6 6 7 6 7 7 8 8 9 8 8 7 7 7 7 6 7 7 7 7 8 8 8 8 8 8 9 9
4 4 4 4 5 5 5 6 6 6 7 6 6 7 7 6 7 7 6 8 8 9 9 9 9 8 8 8 8 8 7 8 8 7 8 8 8 8 8 7 8 10
4 5 5 5 5 6 7 7 8 8 7 8 7 6 8 8 8 8 8 8 9 8 8 9 10 10 10 10 10 9 8 8 8 8 9 9 8 8 8 8 8 9
4 4 4 5 5 5 5 6 7 8 8 9 8 9 10 9 10 10 10 8 9 9 9 9 9 9 9 9 10 11 11 10 10 9 9 9 9 10 9 9 9 9
5 5 4 5 5 4 5 5 6 7 7 7 6 7 8 9 9 9 10 11 10 10 10 9 9 9 8 8 10 11 11 11 11 12 12 11 10 9 9 10 10 9
6 6 7 8 9 10 10 10 9 8 7 7 8 8 7 8 8 8 8 9 10 10 9 8 9 8 11 17 16 13 12 12 12 12 12 12 12 12 11 10 10 10
12 12 12 12 10 10 9 8 9 8 8 9 9 9 9 10 9 9 9 8 9 9 10 10 10 10 15 20 21 23 16 13 13 13 13 14 13 13 13 13 12 10
9 10 11 11 11 12 13 14 14 15 14 13 12 12 11 10 12 12 12 11 10 11 12 12 11 13 22 23 24 24 21 15 12 12 12 12 12 14 14 13 13 12
8 8 9 9 9 10 11 12 13 14 15 15 16 15 14 14 14 14 14 13 13 14 14 14 13 15 22 24 24 25 25 22 13 13 13 13 14 14 14 14 14 14
7 6 8 9 9 11 11 12 12 13 13 12 12 14 14 15 15 15 14 13 12 13 12 14 14 18 27 28 28 28 27 23 14 14 14 15 16 14 13 14 14 14
7 8 9 10 10 10 11 11 12 12 13 12 11 12 13 12 15 14 15 15 14 14 13 14 14 27 30 31 30 31 31 26 15 14 14 15 15 15 15 15 15 15
8 9 10 10 11 11 11 12 12 12 12 12 12 13 12 13 13 13 16 16 16 15 16 15 18 30 30 30 31 30 32 19 15 15 15 15 15 15 16 15 15 16
8 9 9 10 10 11 12 12 12 12 11 9 11 12 13 14 13 14 13 15 17 15 15 15 16 24 31 31 31 33 26 16 16 15 15 16 17 16 16 15 15 15
8 8 10 10 10 11 12 12 11 10 10 9 11 13 13 12 11 14 13 13 15 16 14 15 16 24 33 32 33 33 28 20 16 15 16 16 16 17 15 15 16 23
8 9 9 11 12 12 11 13 12 11 11 10 10 10 13 11 12 12 14 12 11 13 23 22 17 22 29 29 31 29 24 16 15 13 15 15 14 15 15 14 17 18
8 9 10 10 12 13 11 11 10 10 10 11 11 10 11 11 12 11 14 12 11 11 13 13 16 15 20 30 29 29 29 19 13 13 14 15 15 14 14 14 14 13
Wind_Direction
32 32 31 33 31 27 24 22 17 19 16 10 8 355 356 344 352 358 355 355 347 318 306 299 299 298 290 292 287 283 272 262 268 263 254 244 246 241 243 242 239 230
30 30 29 29 28 24 24 25 21 21 14 13 6 357 354 352 350 356 355 355 353 350 338 328 320 308 303 298 293 289 283 281 274 271 267 262 254 248 248 246 244 243
33 33 33 32 26 17 15 16 26 21 19 9 7 7 355 352 349 352 353 355 353 349 348 342 333 324 312 302 295 288 279 277 275 274 267 266 265 256 254 251 252 246
32 36 33 26 23 14 6 18 21 20 14 14 9 358 356 347 348 350 350 353 351 346 342 341 337 327 323 312 312 300 285 278 268 277 280 278 266 257 260 253 254 261
28 25 28 31 21 10 13 23 23 23 23 13 3 357 354 352 349 349 352 346 349 344 342 341 338 333 328 323 317 310 300 291 286 279 273 273 271 266 261 254 257 258
17 25 23 21 9 12 13 13 9 11 7 10 0 339 337 337 341 343 345 344 342 343 339 340 342 335 335 326 320 305 296 295 285 286 279 271 273 267 263 260 261 262
344 359 1 357 360 6 12 5 3 1 356 345 334 346 336 335 334 333 326 328 330 332 334 334 339 337 336 335 328 315 303 283 282 276 269 269 267 273 268 262 261 260
306 315 312 346 335 350 350 347 346 340 333 338 339 317 333 328 331 332 331 319 312 305 309 319 324 330 330 334 326 321 312 306 295 283 274 270 264 266 266 260 254 259
303 303 293 310 303 300 291 300 295 308 309 316 312 313 314 311 313 321 324 324 320 316 311 309 305 303 308 314 313 311 308 305 300 293 287 284 276 266 264 262 262 255
299 277 291 295 302 289 284 285 277 278 279 281 282 295 309 307 305 303 306 310 308 307 310 309 309 304 298 291 289 290 292 292 295 294 285 278 277 279 275 269 264 267
300 301 310 310 310 309 301 296 289 285 286 282 283 284 282 290 297 304 304 300 300 299 299 302 302 302 296 291 283 278 277 278 278 279 281 279 275 273 273 272 271 267
301 312 305 300 304 306 303 301 298 296 294 288 279 282 281 272 275 275 269 276 281 288 290 292 294 292 289 286 286 283 276 272 273 271 269 269 273 272 270 265 267 269
298 291 291 299 303 305 310 311 306 300 295 291 288 283 287 290 281 278 271 269 274 272 275 282 289 292 293 291 290 285 278 273 270 266 266 272 270 267 264 262 259 262
285 275 277 273 277 283 282 281 282 283 286 290 296 295 292 289 289 287 285 279 276 276 275 276 276 277 277 282 286 289 289 286 282 277 269 258 256 257 260 258 254 254
323 312 302 299 290 280 273 270 267 268 270 271 267 268 270 268 271 271 276 280 278 276 279 276 274 274 276 276 282 282 278 278 279 279 278 275 268 259 249 249 251 250
322 320 323 322 322 321 320 317 312 307 301 298 294 284 278 273 266 264 264 268 273 274 272 275 276 277 273 272 270 270 273 275 278 277 274 272 274 277 273 259 248 246
342 338 334 330 327 325 322 323 319 316 313 310 309 307 304 299 291 287 284 278 278 281 282 279 276 274 272 276 280 278 276 275 272 271 271 274 274 271 271 273 271 260
334 328 328 327 334 337 337 334 331 328 324 321 317 316 312 308 303 297 295 295 291 287 283 280 279 273 278 282 282 281 280 276 273 273 270 266 267 270 274 274 271 269
330 325 325 332 336 333 327 325 322 319 319 320 319 318 315 310 304 303 299 298 295 294 291 289 287 283 285 285 285 285 285 283 278 276 275 272 269 268 266 267 271 273
324 335 332 327 326 324 322 318 318 314 313 313 312 312 310 309 308 307 305 301 299 296 294 293 290 293 293 294 293 292 290 288 281 278 275 272 271 266 264 264 263 264
341 334 327 324 323 320 319 315 313 313 313 315 316 312 311 310 309 310 306 304 303 303 300 296 293 296 297 298 298 298 297 296 290 284 279 276 274 272 269 267 263 259
337 329 326 325 322 321 319 315 314 313 314 318 313 306 303 303 301 304 302 304 304 305 304 299 298 299 300 300 300 299 299 298 295 290 286 281 276 273 271 270 268 262
334 326 321 320 320 318 314 312 312 311 309 313 304 301 302 301 301 300 301 302 303 305 305 302 300 303 305 304 303 302 302 301 298 293 286 282 278 276 271 266 264 261
326 322 317 317 315 311 308 305 304 300 298 305 300 302 299 298 302 299 296 297 300 304 307 308 306 308 308 307 304 302 300 297 296 294 291 288 286 284 284 282 279 277
319 318 315 313 309 305 304 302 301 300 298 298 290 289 290 295 297 295 295 296 302 306 307 304 301 303 306 307 305 305 303 296 291 286 285 280 280 280 277 275 274 273
315 312 307 305 302 301 298 293 295 296 295 296 292 289 290 292 293 290 292 294 299 296 292 294 296 296 303 306 306 305 305 302 293 287 281 281 280 279 280 274 272 271